星链-1275 (STARLINK-1275 )

导读

STARLINK-1275是美国SpaceX公司星链(Starlink)项目的卫星,于2020年3月18日发射升空,属于星链计划中早期部署的卫星之一,旨在构建全球卫星互联网星座,为全球提供高速宽带网络服务,服务覆盖偏远地区、海上、航空等场景。作为星链星座组网的组成单元,该卫星运行在近地轨道,依托批量发射组网模式,推动低轨卫星互联网基础设施建设,也引发了业界对天文观测和太空交通安全的讨论。

基本信息
目录编号:
45407
目录名称:
STARLINK-1275
国际标识:
2020-019AZ
轨道中心:
EARTH
卫星名称:
星链-1275
卫星全名:
星链-1275 (STARLINK-1275 )
卫星状态:
已陨落 最后检测时间 2025-05-05
发射日期:
2020-03-18 UTC
国别 :
美国 (US)
星等 :
--
该卫星已列入 空间交会检测服务 Space Conjunction Data Service (SCDS) ,当前飞行风险评估等级: 无高风险
轨道信息
数据来源 国际轨道数据
星历时间: 2025-05-06T00:56:06+0800
轨道信息已过期493天
半长轴: 6564.116km
偏心率: 0.0010277
轨道倾角: 53.025°
近地点辐角 246.629°
升交点赤经 340.096°
平近点角 231.197°
近地点: 179.235km
远地点: 192.727km
周期: 88.211分钟
每日圈数: 16.324445
详细信息
固有亮度:
5
最大亮度:
2.5
卫星平台:
Starlink V1.0
覆盖范围:
全球
运营商:
太空探索技术公司
运营商所在国:
美国
制造商(研发单位):
太空探索技术公司
制造商所在国:
美国
使用方式:
暂无
卫星简介
星链(Starlink)计划是由太空探索技术公司(SpaceX)提出的一个巨型低轨卫星互联网星座项目,计划在2019年至2024年间在太空搭建由约1.2万颗卫星组成的“星链”网络,其中1584颗将部署在地球上空550千米处的近地轨道,并从2020年开始工作。该卫星仍在工作。
与全量物体交会距离演化趋势
与全量物体交会风险概率演化趋势